EW4987 Weather Reports


time (UTC)temp
C
wind
direction
speed
KPH
gust
KPH
rain 1hr
cm
rain 24hr
cm
rain mn
cm
humidity
%
barometer
mb
20260831010005 22 259 0.0 0.0 0.00 0.18 0.10 41 1007.0
20260831004501 22 237 0.0 0.0 0.00 0.18 0.10 46 1007.0
20260831003057 22 237 0.0 1.6 0.00 0.18 0.10 46 1006.9
20260831001552 22 255 0.0 0.0 0.00 0.18 0.10 48 1007.0
20260831000048 22 255 0.0 0.0 0.00 0.18 0.10 47 1007.3
20260830234547 22 256 0.0 0.0 0.00 0.18 0.10 47 1007.4
20260830233041 22 256 0.0 0.0 0.00 0.18 0.10 46 1007.3
20260830231536 22 256 0.0 0.0 0.00 0.18 0.10 44 1007.3
20260830230031 23 250 0.0 0.0 0.00 0.18 0.10 42 1007.5
20260830224526 22 250 0.0 0.0 0.00 0.20 0.10 42 1007.7
20260830223020 22 238 0.0 0.0 0.00 0.20 0.10 42 1007.7
20260830221516 22 250 0.0 1.6 0.00 0.20 0.10 38 1008.1
20260830220012 23 232 0.0 0.0 0.00 0.20 0.10 33 1008.0
20260830214508 23 235 0.0 0.0 0.00 0.20 0.10 36 1008.0
20260830213005 22 257 0.0 1.6 0.00 0.20 0.10 33 1008.0
20260830211601 23 277 0.0 1.6 0.00 0.20 0.10 36 1008.2
20260830210100 23 227 0.0 1.6 0.00 0.20 0.10 34 1008.4
20260830204556 24 293 0.0 1.6 0.00 0.20 0.10 40 1008.5
20260830203052 23 290 0.0 0.0 0.00 0.20 0.10 40 1008.7
20260830201540 23 240 0.0 0.0 0.00 0.20 0.10 41 1008.7
20260830200037 23 360 0.0 1.6 0.00 0.20 0.10 41 1008.9
20260830194532 22 137 0.0 0.0 0.00 0.20 0.10 42 1009.0
20260830193027 22 184 0.0 0.0 0.00 0.20 0.10 42 1009.3
20260830191528 22 193 0.0 0.0 0.00 0.20 0.10 42 1009.4
20260830190019 22 180 0.0 0.0 0.00 0.20 0.10 43 1009.7
20260830184514 22 142 0.0 1.6 0.00 0.43 0.10 42 1009.9
20260830183010 22 176 0.0 0.0 0.00 0.43 0.10 38 1010.1
20260830181505 21 157 0.0 1.6 0.00 0.43 0.10 32 1010.5
20260830180001 21 145 0.0 1.6 0.00 0.43 0.10 14 1010.9
20260830174601 21 139 0.0 4.8 0.00 0.48 0.10 1 1011.0
20260830173053 20 160 0.0 1.6 0.00 0.48 0.10 1 1011.1
20260830171548 19 151 0.0 1.6 0.00 0.48 0.10 1 1011.1
20260830170043 19 173 0.0 1.6 0.00 0.48 0.10 1 1011.2
20260830164542 18 171 0.0 1.6 0.00 0.71 0.10 1 1011.3
20260830163034 18 150 0.0 0.0 0.00 0.71 0.10 1 1011.2
20260830161539 17 150 0.0 1.6 0.00 0.71 0.10 1 1011.4
20260830160027 16 171 0.0 4.8 0.00 0.71 0.10 1 1011.5
20260830154532 16 157 0.0 0.0 0.00 1.02 0.10 1 1011.5
20260830153024 15 149 0.0 3.2 0.00 1.02 0.10 1 1011.7
20260830151520 14 179 0.0 1.6 0.00 1.02 0.10 1 1012.1
20260830150019 13 98 0.0 0.0 0.00 1.02 0.10 1 1012.0
20260830144517 12 98 0.0 0.0 0.00 1.32 0.10 1 1012.1
20260830143022 12 98 0.0 0.0 0.00 1.32 0.10 1 1012.0
20260830141510 12 98 0.0 1.6 0.03 1.32 0.10 1 1012.2
20260830140004 12 82 0.0 0.0 0.03 1.32 0.10 1 1011.8
20260830134600 12 82 0.0 0.0 0.03 1.32 0.10 1 1011.5
20260830133055 12 83 0.0 0.0 0.03 1.32 0.10 1 1011.8
20260830131551 12 83 0.0 0.0 0.05 1.30 0.08 1 1011.9
20260830130105 12 83 0.0 0.0 0.08 1.30 0.08 1 1011.5
20260830124544 12 83 0.0 0.0 0.08 1.30 0.08 1 1011.4
20260830123039 12 83 0.0 4.8 0.08 1.30 0.08 1 1011.1
20260830121537 12 305 0.0 0.0 0.03 1.24 0.03 1 1011.6
20260830120031 12 305 0.0 0.0 0.00 1.22 0.00 1 1011.4
20260830114555 12 297 0.0 0.0 0.00 1.24 0.00 1 1010.1
20260830113022 12 297 0.0 0.0 0.00 1.24 0.00 1 1009.9
20260830111518 12 297 0.0 0.0 0.00 1.24 0.00 1 1010.0
20260830110013 12 297 0.0 0.0 0.00 1.24 0.00 1 1010.3
20260830104509 13 297 0.0 0.0 0.00 1.27 0.00 1 1010.6
20260830103004 13 297 0.0 0.0 0.00 1.27 0.00 1 1010.2
20260830101608 14 152 0.0 1.6 0.00 1.27 0.00 1 1010.3
20260830100056 14 149 0.0 0.0 0.00 1.27 0.00 1 1010.5
20260830094550 14 142 0.0 0.0 0.00 1.27 0.00 1 1010.3
20260830093046 14 139 0.0 1.6 0.00 1.27 0.00 1 1010.1
20260830091543 14 153 0.0 0.0 0.00 1.27 0.00 1 1010.1
20260830090040 14 151 0.0 1.6 0.00 1.27 0.00 1 1009.7
20260830084533 15 152 0.0 0.0 0.00 1.27 0.00 1 1010.2
20260830083030 15 156 0.0 0.0 0.00 1.27 0.00 1 1010.3
20260830081524 15 181 0.0 0.0 0.00 1.27 0.00 1 1010.1
20260830080020 15 184 0.0 0.0 0.00 1.27 0.00 1 1009.7
20260830074515 15 175 0.0 1.6 0.00 1.27 0.00 1 1010.1
20260830073012 15 165 0.0 1.6 0.00 1.27 0.00 1 1010.0
20260830071511 15 145 0.0 0.0 0.00 1.27 0.00 1 1009.8
20260830070002 15 162 0.0 3.2 0.00 1.27 0.00 1 1009.6
20260830064559 15 143 0.0 1.6 0.00 1.32 0.00 1 1009.2
20260830063052 15 157 0.0 1.6 0.05 1.32 0.00 1 1009.3
20260830061548 15 166 0.0 6.4 0.08 1.32 0.00 1 1009.6
20260830060043 16 360 0.0 1.6 0.08 1.32 0.00 1 1009.6
20260830054540 15 163 0.0 14.5 0.08 1.35 1.32 1 1009.8
20260830053035 15 360 0.0 14.5 0.03 1.30 1.27 1 1011.6
20260830051535 16 169 0.0 8.0 0.00 1.27 1.24 1 1010.3
20260830050025 17 135 0.0 20.9 0.00 1.27 1.24 3 1009.7
20260830044521 16 208 0.0 3.2 0.00 1.27 1.24 1 1009.8
20260830043020 16 183 0.0 3.2 0.00 1.27 1.24 1 1009.9
20260830041512 17 142 0.0 3.2 0.00 1.27 1.24 5 1009.8
20260830040008 17 154 0.0 3.2 0.00 1.27 1.24 1 1009.1
20260830034503 17 146 0.0 0.0 0.00 1.27 1.24 1 1008.4
20260830033002 17 150 0.0 1.6 0.00 1.27 1.24 1 1008.4
20260830031559 17 183 0.0 4.8 0.00 1.27 1.24 1 1008.2
20260830030057 17 166 0.0 1.6 0.00 1.27 1.24 1 1008.2
20260830024550 16 360 0.0 3.2 0.00 1.32 1.24 1 1008.2
20260830023050 16 161 0.0 1.6 0.00 1.32 1.24 1 1008.3
20260830021541 17 131 0.0 8.0 0.00 1.32 1.24 1 1009.3
20260830020058 17 156 0.0 4.8 0.00 1.32 1.24 1 1009.6
20260830014532 17 150 0.0 6.4 0.00 1.32 1.24 1 1009.4
20260830013028 17 143 0.0 8.0 0.00 1.32 1.24 1 1009.2
20260830011538 17 140 0.0 6.4 0.00 1.32 1.24 1 1009.4